Flag for Ghana Weather past 2 weeks in Tamale, Ghana

Now
90 °F

Passing clouds.


Feels Like: 89 °F
Forecast: N/A
Wind: 6 mph from North

Location: Niamtougou

Current Time: Mar 27, 2015 at 5:20:31 PM

Latest Report: Mar 27, 2015 at 4:00 PM


Visibility: N/A

Pressure: 29.95 "Hg

Humidity: 36%

Dew point: 59 °F

Location of TamaleLocation

Historic Weather in Tamale — Graph

°F

Tamale temperature yesterday

Maximum temperature yesterday: 86 °F (at 4:00 PM)
Minimum temperature yesterday: 73 °F (at 6:00 AM)
Average temperature yesterday: 79 °F

Past Weeks' High & Low Weather Summary

 TemperatureHumidityPressure
High99 °F (Mar 15, 2:00 PM)94% (Mar 18, 12:00 AM)30.09 "Hg (Mar 18, 12:00 AM)
Low72 °F (Mar 18, 3:00 AM)11% (Mar 14, 6:00 PM)29.74 "Hg (Mar 24, 4:00 PM)
Average85 °F55%29.90 "Hg
* Reported Mar 12 4:00 PM — Mar 27 4:00 PM, Tamale, Weather by CustomWeather, © 2015

Note: Actual official high and low records may vary slightly from our data, if they occured in-between our weather recording intervals... More about our weather records

Advertising

Tamale weather history for previous 24 hours

 ConditionsComfort  
Time TempWeatherWind HumidityBarometerVisibility
4:00 PM
Fri, Mar 27
90 °FPassing clouds.6 mph36%29.95 "HgN/A
3:00 PM90 °FPassing clouds.6 mph36%29.95 "HgN/A
2:00 PM90 °FPassing clouds.7 mph36%29.98 "HgN/A
1:00 PM88 °FScattered clouds.5 mph52%30.01 "HgN/A
12:00 PM84 °FPassing clouds.6 mph66%30.04 "HgN/A
11:00 AM84 °FScattered clouds.8 mph66%30.07 "HgN/A
10:00 AM82 °FScattered clouds.7 mph70%30.07 "HgN/A
9:00 AM81 °FPassing clouds.7 mph74%30.07 "HgN/A
8:00 AM77 °FPassing clouds.5 mph83%30.07 "HgN/A
7:00 AM77 °FPassing clouds.5 mph83%30.04 "HgN/A
6:00 AM77 °FPassing clouds.3 mph83%30.04 "HgN/A
5:00 AM79 °FSunny.2 mph79%30.01 "Hg10 mi
4:00 AM79 °FClear.1 mph79%29.98 "Hg10 mi
3:00 AM79 °FClear.2 mph84%29.98 "Hg10 mi
12:00 AM79 °FClear.No wind89%30.01 "Hg10 mi
7:00 PM
Thu, Mar 26
82 °FClear.2 mph70%29.95 "Hg10 mi
6:00 PM82 °FClear.2 mph70%29.92 "Hg10 mi
5:00 PM84 °FPassing clouds.5 mph62%29.92 "HgN/A
Weather by CustomWeather, © 2015

See weather overviewHow to use our weather pages